DMSP 5D-3 F16 (USA 172) 1 28054U 03048A 26169.22702862 -.00000031 00000+0 74642-5 0 9999 2 28054 98.9890 193.0623 0007796 137.5448 290.5903 14.14483192169639 METEOSAT-9 (MSG-2) 1 28912U 05049B 26168.83963522 .00000114 00000+0 00000+0 0 9995 2 28912 9.3634 54.1628 0001660 344.5140 215.3198 1.00272435 7009 DMSP 5D-3 F17 (USA 191) 1 29522U 06050A 26169.30107708 -.00000015 00000+0 14717-4 0 9991 2 29522 98.7378 175.8484 0011136 56.4810 303.7426 14.14993091 12589 FENGYUN 3A 1 32958U 08026A 26168.82264941 .00000055 00000+0 46601-4 0 9992 2 32958 98.6883 109.6439 0009615 121.9890 238.2222 14.19571285935498 GOES 14 1 35491U 09033A 26169.28120486 -.00000302 00000+0 00000+0 0 9996 2 35491 1.6937 83.0286 0001800 11.7638 54.1600 1.00110536 6607 DMSP 5D-3 F18 (USA 210) 1 35951U 09057A 26169.27253036 .00000226 00000+0 14030-3 0 9996 2 35951 98.9038 150.0392 0009914 246.0587 113.9548 14.14897369859743 EWS-G2 (GOES 15) 1 36411U 10008A 26169.20649959 .00000013 00000+0 00000+0 0 9994 2 36411 1.2813 82.8263 0004809 42.3031 279.3564 1.00266109 59640 COMS 1 1 36744U 10032A 26169.14747284 .00000070 00000+0 00000+0 0 9996 2 36744 4.8083 75.3434 0011542 11.9093 301.8413 0.99162666 51091 FENGYUN 3B 1 37214U 10059A 26169.30859728 -.00000073 00000+0 -14488-4 0 9998 2 37214 98.9613 215.3283 0021974 180.7663 315.4874 14.14840851807589 SUOMI NPP 1 37849U 11061A 26169.25686226 .00000053 00000+0 46033-4 0 9998 2 37849 98.7953 110.1256 0001474 4.2138 355.9050 14.19517581758597 METEOSAT-10 (MSG-3) 1 38552U 12035B 26167.91989406 -.00000009 00000+0 00000+0 0 9990 2 38552 4.6715 61.0232 0001486 328.8582 206.8187 1.00276823 50856 METOP-B 1 38771U 12049A 26169.31588593 .00000084 00000+0 58123-4 0 9992 2 38771 98.6504 220.7926 0002168 16.8348 343.2901 14.21433023713427 INSAT-3D 1 39216U 13038B 26169.27895152 -.00000346 00000+0 00000+0 0 9991 2 39216 1.9297 82.5264 0000592 315.6597 98.2537 1.00268706 47094 FENGYUN 3C 1 39260U 13052A 26169.24526400 .00000070 00000+0 56725-4 0 9993 2 39260 98.4987 143.0715 0015201 24.6978 335.4922 14.15755245658717 METEOR-M 2 1 40069U 14037A 26169.27184311 .00000505 00000+0 25032-3 0 9999 2 40069 98.5114 144.9723 0006727 41.4364 318.7323 14.21463025619475 HIMAWARI-8 1 40267U 14060A 26169.28111818 -.00000282 00000+0 00000+0 0 9995 2 40267 0.0104 35.5160 0001047 55.3354 57.5398 1.00271304 42778 FENGYUN 2G 1 40367U 14090A 26168.77395412 -.00000310 00000+0 00000+0 0 9998 2 40367 5.6410 72.8081 0004012 158.0009 53.5218 1.00271765 42003 METEOSAT-11 (MSG-4) 1 40732U 15034A 26168.25712117 .00000060 00000+0 00000+0 0 9992 2 40732 3.2014 71.1096 0001741 11.8883 284.7520 1.00280400 7217 ELEKTRO-L 2 1 41105U 15074A 26169.03651196 -.00000126 00000+0 00000+0 0 9991 2 41105 6.6975 70.5132 0000903 256.1704 298.2263 1.00270556 38516 SENTINEL-3A 1 41335U 16011A 26169.26849957 .00000094 00000+0 56985-4 0 9998 2 41335 98.6249 236.6367 0001409 101.6775 258.4564 14.26740305538215 INSAT-3DR 1 41752U 16054A 26169.12533111 -.00000082 00000+0 00000+0 0 9995 2 41752 0.1091 86.2543 0010554 187.5826 111.6196 1.00270980 35822 HIMAWARI-9 1 41836U 16064A 26169.28111818 -.00000281 00000+0 00000+0 0 9993 2 41836 0.0137 285.7929 0000964 205.1431 17.5479 1.00270431 35225 GOES 16 1 41866U 16071A 26169.30249755 -.00000097 00000+0 00000+0 0 9994 2 41866 0.3450 85.5148 0000237 324.1136 221.1192 1.00271125 35119 FENGYUN 4A 1 41882U 16077A 26168.99263307 -.00000364 00000+0 00000+0 0 9998 2 41882 2.3256 80.2790 0008585 153.3107 153.7451 1.00268223 34934 CYGFM05 1 41884U 16078A 26168.62835141 .00019269 00000+0 26108-3 0 9996 2 41884 34.9565 257.6688 0007010 155.8630 204.2424 15.56688646528825 CYGFM04 1 41885U 16078B 26168.53365447 .00023569 00000+0 26530-3 0 9991 2 41885 34.9311 225.9685 0006748 198.5401 161.5079 15.61530426529052 CYGFM02 1 41886U 16078C 26169.23555444 .00026709 00000+0 26660-3 0 9991 2 41886 34.9389 215.7895 0007878 205.7599 154.2736 15.64559304529331 CYGFM01 1 41887U 16078D 26169.32198764 .00018822 00000+0 24841-3 0 9996 2 41887 34.9391 254.1234 0006860 155.9818 204.1228 15.57393414528889 CYGFM08 1 41888U 16078E 26169.27952165 .00021787 00000+0 25942-3 0 9991 2 41888 34.9417 233.9547 0008529 187.5522 172.5075 15.60068527529144 CYGFM07 1 41890U 16078G 26168.53473553 .00021393 00000+0 25426-3 0 9991 2 41890 34.9433 227.2545 0007144 197.5321 162.5158 15.60133044529057 CYGFM03 1 41891U 16078H 26169.20960635 .00022144 00000+0 26292-3 0 9996 2 41891 34.9386 224.6981 0006686 191.6339 168.4232 15.60157676529138 FENGYUN 3D 1 43010U 17072A 26169.27495622 .00000396 00000+0 20895-3 0 9990 2 43010 99.0127 143.7173 0002540 59.9756 300.1671 14.19740463445141 NOAA 20 (JPSS-1) 1 43013U 17073A 26169.27008902 .00000043 00000+0 41353-4 0 9997 2 43013 98.7770 108.7231 0000304 105.7450 254.3760 14.19511917444628 GOES 17 1 43226U 18022A 26169.13572652 -.00000188 00000+0 00000+0 0 9991 2 43226 0.9404 85.6927 0000470 29.6875 110.3425 1.00269610 30432 SENTINEL-3B 1 43437U 18039A 26169.10139771 .00000082 00000+0 52123-4 0 9991 2 43437 98.6248 236.6205 0000720 90.6978 269.4285 14.26734945424250 FENGYUN 2H 1 43491U 18050A 26169.12637112 -.00000137 00000+0 00000+0 0 9992 2 43491 3.0340 79.0570 0001968 138.8523 173.3522 1.00269466 29441 METOP-C 1 43689U 18087A 26169.26463283 .00000088 00000+0 60239-4 0 9991 2 43689 98.6645 228.8486 0001801 128.1100 232.0240 14.21512426394985 GEO-KOMPSAT-2A 1 43823U 18100A 26169.27860485 -.00000350 00000+0 00000+0 0 9991 2 43823 0.0497 158.5954 0001826 288.3889 48.0902 1.00269412 27649 METEOR-M2 2 1 44387U 19038A 26169.22811808 .00000427 00000+0 20448-3 0 9994 2 44387 98.9142 156.5293 0002053 45.8699 314.2648 14.24367467361443 ARKTIKA-M 1 1 47719U 21016A 26168.49069990 -.00000210 00000+0 00000+0 0 9999 2 47719 63.2922 57.5948 7288528 269.9420 14.6012 2.00622504 38796 FENGYUN 3E 1 49008U 21062A 26169.25869992 .00000204 00000+0 11701-3 0 9994 2 49008 98.7488 172.6549 0002841 84.1349 276.0151 14.19905327256731 GOES 18 1 51850U 22021A 26169.22612181 .00000091 00000+0 00000+0 0 9991 2 51850 0.0081 71.8830 0000321 72.3935 66.5838 1.00270996 6604 NOAA 21 (JPSS-2) 1 54234U 22150A 26169.30295105 .00000040 00000+0 39845-4 0 9993 2 54234 98.7059 108.0735 0001733 151.3811 208.7460 14.19565624186708 METEOSAT-12 (MTG-I1) 1 54743U 22170C 26169.18186517 -.00000014 00000+0 00000+0 0 9990 2 54743 0.7396 23.1663 0003212 71.1822 237.1409 1.00272883 12987 TIANMU-1 03 1 55973U 23039A 26169.27892769 .00012342 00000+0 24360-3 0 9999 2 55973 97.5235 343.2902 0004169 95.9523 264.2202 15.47310501181003 TIANMU-1 04 1 55974U 23039B 26169.26798289 .00012497 00000+0 24156-3 0 9995 2 55974 97.5171 342.4327 0004837 92.9563 267.2240 15.47908801181010 TIANMU-1 05 1 55975U 23039C 26169.25974288 .00011683 00000+0 23131-3 0 9998 2 55975 97.5219 342.8847 0004006 112.5106 247.6568 15.47236686180980 TIANMU-1 06 1 55976U 23039D 26169.27142845 .00012304 00000+0 23868-3 0 9995 2 55976 97.5223 343.5339 0004372 107.9121 252.2606 15.47812563181015 FENGYUN 3G 1 56232U 23055A 26169.07183779 .00020951 00000+0 33954-3 0 9992 2 56232 49.9937 341.4619 0007014 300.0457 59.9814 15.52665256180143 METEOR-M2 3 1 57166U 23091A 26169.29293069 .00000028 00000+0 31097-4 0 9997 2 57166 98.6090 224.2486 0004394 152.5236 207.6176 14.24046946154673 TIANMU-1 07 1 57399U 23101A 26169.21210219 .00005007 00000+0 17594-3 0 9992 2 57399 97.2587 219.8570 0004138 119.3341 240.8314 15.29817505161804 TIANMU-1 08 1 57400U 23101B 26169.30956000 .00004869 00000+0 17109-3 0 9997 2 57400 97.2576 219.7226 0005631 112.5994 247.5844 15.29823083161811 TIANMU-1 09 1 57401U 23101C 26169.29295209 .00005117 00000+0 17954-3 0 9998 2 57401 97.2534 219.1216 0004642 124.0918 236.0764 15.29854526161814 TIANMU-1 10 1 57402U 23101D 26169.19520499 .00005168 00000+0 18143-3 0 9997 2 57402 97.2613 220.0776 0006201 123.6381 236.5452 15.29825125161796 FENGYUN 3F 1 57490U 23111A 26169.31305894 .00000048 00000+0 42950-4 0 9995 2 57490 98.6836 239.3008 0001593 92.6759 267.4600 14.19939318149027 ARKTIKA-M 2 1 58584U 23198A 26160.78386103 .00000212 00000+0 00000+0 0 9997 2 58584 63.2205 155.1874 6900401 267.4353 18.7899 2.00606537 18179 TIANMU-1 11 1 58645U 23205A 26169.29857409 .00004282 00000+0 16416-3 0 9994 2 58645 97.3442 190.8380 0008818 13.4537 346.6936 15.27005118137699 TIANMU-1 12 1 58646U 23205B 26169.33449663 .00004519 00000+0 17338-3 0 9996 2 58646 97.3431 190.6289 0006582 359.6462 0.4772 15.26970290137685 TIANMU-1 13 1 58647U 23205C 26169.30125003 .00004309 00000+0 16618-3 0 9990 2 58647 97.3459 190.8689 0005774 337.0657 23.0323 15.26823251137676 TIANMU-1 14 1 58648U 23205D 26169.28642394 .00004483 00000+0 17252-3 0 9993 2 58648 97.3395 190.0353 0006721 341.3417 18.7575 15.26868056137673 TIANMU-1 19 1 58660U 23208A 26169.26697946 .00006287 00000+0 20868-3 0 9992 2 58660 97.4510 285.5720 0003745 323.5175 36.5810 15.31587056137495 TIANMU-1 20 1 58661U 23208B 26169.30393622 .00006252 00000+0 19994-3 0 9992 2 58661 97.4452 286.2456 0005935 329.3230 30.7664 15.32778201137593 TIANMU-1 21 1 58662U 23208C 26169.29059825 .00007379 00000+0 21901-3 0 9997 2 58662 97.4512 288.9175 0005893 319.1928 40.8873 15.35092587137731 TIANMU-1 22 1 58663U 23208D 26169.31449892 .00005733 00000+0 19359-3 0 9994 2 58663 97.4506 285.5549 0003075 359.8146 0.3094 15.31070682137505 TIANMU-1 15 1 58700U 24004A 26169.27814854 .00004336 00000+0 16622-3 0 9998 2 58700 97.4668 355.4683 0006588 358.6345 1.4875 15.27032290135945 TIANMU-1 16 1 58701U 24004B 26169.26758191 .00004406 00000+0 17027-3 0 9997 2 58701 97.4614 354.6934 0005717 4.3115 355.8172 15.26757270135947 TIANMU-1 17 1 58702U 24004C 26169.31857635 .00004377 00000+0 16918-3 0 9992 2 58702 97.4642 355.2296 0005403 10.6425 349.4927 15.26756862135946 TIANMU-1 18 1 58703U 24004D 26169.29477610 .00004230 00000+0 16238-3 0 9994 2 58703 97.4660 355.4620 0003950 11.7087 348.4243 15.27014123135949 INSAT-3DS 1 58990U 24033A 26169.05566538 -.00000162 00000+0 00000+0 0 9993 2 58990 0.0447 109.1675 0001046 326.3150 292.9569 1.00271270 47078 METEOR-M2 4 1 59051U 24039A 26169.30890603 .00000016 00000+0 26815-4 0 9993 2 59051 98.7011 128.5928 0007358 157.8364 202.3133 14.22429678119426 GOES 19 1 60133U 24119A 26169.16704510 -.00000254 00000+0 00000+0 0 9998 2 60133 0.0352 155.0774 0000364 21.7701 74.5084 1.00270931 6978 MTG-S1 1 64723U 25143A 26168.96740449 -.00000037 00000+0 00000+0 0 9992 2 64723 0.6022 339.1600 0000787 17.8158 254.0253 1.00270537 3423 METOP-SGA1 1 65159U 25172A 26167.15332899 .00000049 00000+0 42000-4 0 9997 2 65159 98.6644 226.8998 0000902 93.8213 266.3067 14.21509720 43644 FENGYUN 3H 1 65815U 25219A 26169.23898253 .00000042 00000+0 40094-4 0 9994 2 65815 98.6768 109.9876 0001598 76.2621 283.8733 14.19920624 37538